Location: Unspecified
(42.3650°N, 71.1030°W)
Time: 11:23:38
(UTC+00:00)

Tiros 1 - Pass Details

Date: 29 June 2024
Orbit: 624 x 656 km, 48.4° (Epoch: 20 July)

Event Time Altitude Azimuth Distance (km) Brightness Sun altitude
Rises 04:37:36 0° 279° (W) 2,900 10.6 -24.4°
Reaches altitude 10° 04:40:02 10° 287° (WNW) 1,995 9.9 -24.4°
Maximum altitude 04:44:20 39° 357° (N) 948 8.5 -24.4°
Drops below altitude 10° 04:48:39 10° 66° (ENE) 2,005 9.9 -24.4°
Sets 04:51:07 0° 74° (ENE) 2,917 10.7 -24.4°
